CZ-4B R/B (53349 NORAD) Tracking and Keplerian Element Data

This shows tracking and keplerian element data for the satellite.

Feedback or suggestion? Click here.




ElementValue
Catalog53349
NameCZ-4B R/B
Epoch Orbit407
Epoch Day242.21758304
Epoch Year2022
RAAN316.5852
Inclination97.5141
Eccentricity0.0150469
Argument of Perigee293.3266
Mean Anonmoly65.2218
Mean Motion15.61035279
Decay Rate0.0003897
L11 53349U 22090D 22242.21758304 .00038970 26801-5 26701-3 0 9997
L22 53349 97.5141 316.5852 0150469 293.3266 65.2218 15.61035279 4073

Live tracking and technical data element details for CZ-4B R/B (NORAD 53349). CZ-4B R/B can be tracked NOW for your location showing map with azimuth and elevation plus other details from your city location.

Track the satellite on the map from your city or location and see movement details for azimuth, elevation, latitude, longitude, range, height, and movement on the map or in text.







IsCatalogInMostPopularTable: catalog: 53349, numindb: 3
Update: records affected: 1



GetName: 53349 CZ-4B R/B

Hit Count: updated at: Thu, 29 Sep 2022 10:46:31 GMT